Content
SEND FEEDBACK

Daily
Averages
Monthly
Summary
United States of America

MALDEN, MISSOURI


Home > North America > United States > Missouri
Elevation: 89 meters     Latitude: 36 36N     Longitude: 089 59W

WEATHER
 
SELECT A DAY
Number of Records: 207,828;   Date Range: 1/1/95 - 8/30/14
 
SHARE

PRINT THIS DATA

[ ← Previous Day ]
WEATHER ALMANAC - 12 OCTOBER, 2013
[ Next Day → ]
[ °F ]   °C
Weather ElementAverageHighLow
Temperature18 °C23 °C (5:04 pm)14.4 °C (4:53 am)
Dewpoint16 °C18.3 °C (2:53 pm)12.8 °C (4:53 am)
Humidity88.3 %94 % (10:24 am)73 % (4:53 pm)
Barometer1018.3 hPa1021.3 hPa (11:34 pm)1014.9 hPa (1:53 am)
Wind Speed1.3 km/h11.1 km/h (9:21 am)
Weather ElementAverage
Visibility6.1 km
Wind DirectionNE (42.3 °)

Weather ElementTotal
Precipitation15.49 mm
Cooling Degree Days0.4 (Base 18.3)
Growing Degree Days8.7 (Base 10)
Averaged from 48 records on 12 October, 2013
WEATHER CONDITIONS BREAKOUT
WIND DIRECTION BREAKOUT
WEATHER BY HOUR - 12 OCTOBER, 2013
[ °F ]   °C
Local TimeTemperatureDewpointHumidityBarometerVisibilityWind DirectionWind SpeedGust SpeedPrecipitationEventsConditions
1:53 AM15.6 °C13.3 °C86 %1014.9 hPa11.3 kmCalmMostly Cloudy
2:53 AM15 °C13.3 °C90 %1014.9 hPa6.4 kmCalmClear
3:53 AM15 °C13.3 °C90 %1014.9 hPa9.7 kmCalmClear
4:53 AM14.4 °C12.8 °C90 %1015.2 hPa11.3 kmCalmClear
5:53 AM15.6 °C13.9 °C90 %1015.6 hPa8 kmCalmOvercast
6:53 AM16.1 °C14.4 °C90 %1015.6 hPa8 kmCalmOvercast
7:53 AM17.2 °C15.6 °C90 %1015.9 hPa6.4 kmCalmOvercast
8:53 AM17.8 °C16.1 °C90 %1016.3 hPa4.8 kmCalmMostly Cloudy
9:21 AM18 °C16 °C88 %1017.6 hPa6.4 kmWest (270°)11.1 km/h0 mmRain-ThunderstormLight Thunderstorms and Rain
9:30 AM18 °C16 °C88 %1017.9 hPa2.4 kmWNW (300°)9.3 km/h0.76 mmRain-ThunderstormHeavy Rain
9:53 AM17.8 °C16.1 °C90 %1017.9 hPa2.9 kmCalm5.08 mmRain-ThunderstormThunderstorms and Rain
10:24 AM18 °C17 °C94 %1017.9 hPa2.4 kmCalm2.79 mmRainRain
10:39 AM18 °C17 °C94 %1018.3 hPa4 kmCalm3.3 mmRainLight Rain
10:53 AM18.3 °C16.7 °C90 %1018.3 hPa4 kmCalm3.56 mmRainLight Rain
11:05 AM18 °C17 °C94 %1018.3 hPa4.8 kmCalm0 mmOvercast
11:19 AM19 °C17 °C88 %1017.9 hPa4 kmEast (90°)7.4 km/h0 mmMostly Cloudy
11:29 AM19 °C17 °C88 %1018.3 hPa4.8 kmCalm0 mmMostly Cloudy
11:53 AM19.4 °C17.2 °C87 %1017.9 hPa8 kmCalm0 mmOvercast
12:53 PM20.6 °C17.8 °C84 %1017.6 hPa14.5 kmCalmOvercast
1:53 PM21.7 °C17.8 °C78 %1017.3 hPa16.1 kmCalmOvercast
2:06 PM22 °C18 °C78 %1017.6 hPa16.1 kmCalmOvercast
2:53 PM22.2 °C18.3 °C78 %1017.3 hPa16.1 kmNorth (350°)7.4 km/hOvercast
3:38 PM22 °C18 °C78 %1017.3 hPa16.1 kmNNW (330°)9.3 km/hOvercast
3:53 PM22.2 °C17.8 °C76 %1017.3 hPa16.1 kmNW (320°)9.3 km/hOvercast
4:53 PM22.8 °C17.8 °C73 %1017.3 hPa16.1 kmNNE (20°)5.6 km/hMostly Cloudy
5:04 PM23 °C18 °C73 %1017.6 hPa16.1 kmNorth (350°)5.6 km/hPartly Cloudy
5:53 PM22.2 °C17.8 °C76 %1017.6 hPa16.1 kmCalmClear
6:53 PM19.4 °C17.2 °C87 %1017.9 hPa6.4 kmCalmClear
7:01 PM18 °C17 °C94 %1018.3 hPa1.6 kmCalmClear
7:06 PM18 °C17 °C94 %1018.3 hPa0.3 kmCalmFogFog
7:17 PM18 °C17 °C94 %1018.3 hPa1.6 kmCalmMist
7:27 PM18 °C17 °C94 %1018.6 hPa0.8 kmCalmFogFog
7:31 PM18 °C17 °C94 %1018.6 hPa0.3 kmCalmFogFog
7:38 PM18 °C17 °C94 %1018.6 hPa0.3 kmCalmFogFog
7:53 PM17.2 °C16.1 °C93 %1018.6 hPa0.3 kmCalmFogFog
8:29 PM17 °C16 °C94 %1019.3 hPa0.8 kmCalmFogFog
8:36 PM16 °C14 °C88 %1019.6 hPa0.3 kmCalmFogFog
8:53 PM16.1 °C15 °C93 %1019.6 hPa0.3 kmCalmFogFog
9:53 PM15.6 °C14.4 °C93 %1020.3 hPa0.3 kmCalmFogFog
10:42 PM17 °C16 °C94 %1021 hPa1.6 kmCalmOvercast
10:53 PM16.7 °C15.6 °C93 %1021 hPa1.6 kmCalmMostly Cloudy
11:15 PM17 °C15 °C88 %1021 hPa4 kmCalmMostly Cloudy
11:22 PM16 °C15 °C94 %1021 hPa4.8 kmCalmMostly Cloudy
11:34 PM16 °C14 °C88 %1021.3 hPa4 kmCalmPartly Cloudy
11:38 PM16 °C14 °C88 %1021.3 hPa4.8 kmCalmScattered Clouds
11:46 PM16 °C14 °C88 %1021.3 hPa2.4 kmCalmPartly Cloudy
11:49 PM16 °C14 °C88 %1021.3 hPa1.3 kmCalmMist
11:53 PM15.6 °C14.4 °C93 %1021.3 hPa0.8 kmCalmFogFog
Hourly data recorded from KPOF, located 0 kilometers away from Malden, Missouri







STORIES FROM OUR PARTNERS